User: anonymous   Login
Location: Astronight Observatory
(42.6003°N, 71.2981°W)
Time: 22:47:48
(UTC-04:00)
Language:

DELTA 2 R/B (1) - Orbit

View from above orbital plane
View from above orbital plane
View from above satellite
View from above satellite

Ground track
Ground track

The orbit data is extracted from the following two-line orbital elements,

1 27665U 03005C   17293.84054576  .00000058  00000-0  56720-4 0  9992
2 27665  39.5751 190.4560 0008032 357.5381  61.1856 14.28457058768909
Epoch (UTC): 20 October 2017 20:10:23
Eccentricity: 0.0008032
inclination: 39.5751°
perigee height: 791 km
apogee height: 802 km
right ascension of ascending node: 190.4560°
argument of perigee: 357.5381°
revolutions per day: 14.28457058
mean anomaly at epoch: 61.1856°
orbit number at epoch: 76890

The dashed part of the orbit path shows where the satellite is in the earth's shadow,  

DLR